{"data":{"norad_id":64225,"intl_designator":"2025-117Y","name":"STARLINK-34289","alt_names":[],"object_type":"PAYLOAD","status":"ACTIVE","operator":null,"country":"US","launch_date":"2025-05-31","launch_site_code":"AFWTR","launch_vehicle":null,"mission":null,"orbit_class":"UNKNOWN","rcs_meters":null,"size_class":null,"mass_kg":null,"dimensions":null,"purposes":["comms"],"wikipedia_slug":null,"has_3d_model":false,"image_url":null,"decayed_at":null,"tle_current":{"epoch":"2026-09-20T03:35:55.972896Z","epoch_age_seconds":167904,"freshness":"FRESH","line1":"1 64225U 25117Y   26263.14995339  .00014017  00000+0  42513-3 0  9997","line2":"2 64225  53.1556 213.1497 0001193  94.6766 265.4373 15.34406814 74372","mean_motion":15.34406814,"eccentricity":0.0001193,"inclination_deg":53.1556,"raan_deg":213.1497,"arg_perigee_deg":94.6766,"mean_anomaly_deg":265.4373,"bstar":0.00042513,"rev_number":7437,"period_min":93.84734132183,"perigee_km":461.86687781354,"apogee_km":463.49909746259,"semimajor_km":6840.8199876381,"source":"CELESTRAK","updated_at":"2026-09-21T09:00:35.274889Z"}}}